This demonstration page uses our WeatherBlox Daily Observations layout. Learn more.

39.01783, -85.05884

Hourly Observations for August 10, 2019

Temp ( °F °C ) Dew Point ( °F °C ) Humidity (%) Winds ( mph kmh ) Pressure ( in mb ) Visibility ( mi km ) Precip ( " mm )
12:52 am 00:52 Clear 72 22.2 56 13.3 57 57 NE 5 7 29.94 1014 10 16.09344 0 0
1:52 am 01:52 Clear 71 21.7 55 12.8 57 57 Calm 29.91 1013 10 16.09344 0 0
2:52 am 02:52 Mostly Clear 65 18.3 59 15 81 81 N 7 11 29.94 1014 10 16.09344 0 0
3:52 am 03:52 Mostly Clear 67 19.4 57 13.9 71 71 N 7 11 29.91 1013 10 16.09344 0 0
4:52 am 04:52 Clear 68 20 55 12.8 63 63 NE 6 9 29.91 1013 10 16.09344 0 0
5:52 am 05:52 Clear 67 19.4 55 12.8 66 66 E 3 6 29.91 1013 10 16.09344 0 0
6:52 am 06:52 Sunny 63 17.2 58 14.4 84 84 N 5 7 29.94 1014 10 16.09344 0 0
7:52 am 07:52 Mostly Sunny 66 18.9 57 13.9 73 73 Calm 29.97 1015 10 16.09344 0 0
8:52 am 08:52 Mostly Sunny 70 21.1 56 13.3 61 61 ENE 3 6 29.97 1015 10 16.09344 0 0
9:52 am 09:52 Partly Cloudy 72 22.2 57 13.9 59 59 NE 6 9 30 1016 10 16.09344 0 0
10:52 am 10:52 Mostly Cloudy 76 24.4 56 13.3 50 50 Calm 30 1016 10 16.09344 0 0
11:52 am 11:52 Cloudy 79 26.1 56 13.3 45 45 VRB 5 7 30 1016 10 16.09344 0 0
12:52 pm 12:52 Cloudy 79 26.1 54 12.2 42 42 N 7 11 29.97 1015 10 16.09344 0 0
1:52 pm 13:52 Partly Cloudy 82 27.8 55 12.8 40 40 NNW 8 13 29.97 1015 10 16.09344 0 0
2:52 pm 14:52 Mostly Sunny 83 28.3 54 12.2 37 37 NNW 10 17 29.94 1014 10 16.09344 0 0
3:52 pm 15:52 Mostly Sunny 84 28.9 54 12.2 36 36 N 10 17 29.94 1014 10 16.09344 0 0
4:52 pm 16:52 Mostly Sunny 84 28.9 54 12.2 36 36 N 7 11 29.94 1014 10 16.09344 0 0
5:52 pm 17:52 Partly Cloudy 83 28.3 54 12.2 37 37 N 10 17 29.94 1014 10 16.09344 0 0
6:52 pm 18:52 Partly Cloudy 82 27.8 53 11.7 37 37 NNW 9 15 29.94 1014 10 16.09344 0 0
7:52 pm 19:52 Mostly Sunny 80 26.7 53 11.7 39 39 NNW 8 13 29.94 1014 10 16.09344 0 0
8:52 pm 20:52 Mostly Clear 76 24.4 53 11.7 45 45 NNW 8 13 29.94 1014 10 16.09344 0 0
9:52 pm 21:52 Mostly Clear 73 22.8 54 12.2 51 51 N 8 13 29.97 1015 10 16.09344 0 0
10:52 pm 22:52 Mostly Clear 75 23.9 52 11.1 45 45 NE 9 15 29.97 1015 10 16.09344 0 0
11:52 pm 23:52 Mostly Clear 74 23.3 53 11.7 48 48 NE 7 11 30 1016 10 16.09344 0 0

Powered by AerisWeather